#timestamp,LO_Frequency,Hit,StdDev 
1505566815.5,286046993.6,N
1505566835.4,286046993.7,N
1505566855.2,286046997.1,N
1505566875.0,286046996.7,N
1505566875.9,286046996.7,N
1505566895.8,286046995.7,N
1505566915.6,286046996.3,N
1505566935.4,286046993.7,Y
1505566955.3,286046999.3,P
1505566975.1,286046996.7,N
1505566995.8,286046997.9,N
1505567015.7,286046998.6,N
1505567035.5,286047000.5,N
1505567055.3,286047000.6,N
1505567075.2,286046999.7,N
1505567095.9,286046999.8,N
1505567115.7,286047002.6,N
1505567135.6,286046999.8,N
1505567155.4,286047002.6,N
1505567175.2,286047002.7,N
1505567195.1,286046998.1,N
1505567196.0,286046998.1,N
1505567215.8,286046999.5,N
1505567235.6,286047000.3,N
1505567255.4,286047000.2,N
1505567275.3,286046999.3,N
1505567295.1,286046998.5,N
1505567315.8,286047000.9,N
1505567335.7,286047001.8,N
1505567355.5,286047003.9,N
1505567375.3,286047002.8,N
1505567395.2,286047002.3,N
1505567415.9,286047002.5,N
1505567435.7,286046998.3,N
1505567455.6,286047001.6,N
1505567475.4,286047004.0,N
1505567495.2,286047001.3,N
1505567515.0,286047001.6,N
1505567516.0,286047001.6,N
1505567535.8,286047001.4,N
1505567555.6,286047004.1,N
1505567575.4,286047003.6,N
1505567595.3,286047003.5,N
1505567615.1,286047003.0,N
1505567635.8,286047005.9,Y
1505567655.7,286047007.4,P
1505567675.5,286047004.6,N
1505567695.3,286047003.2,N
1505567715.2,286047002.1,N
1505567735.9,286046998.8,N
1505567755.7,286046996.9,N
1505567775.6,286046997.7,N
1505567795.4,286046997.4,N
1505567815.2,286046997.2,N
1505567835.1,286046995.6,N
1505567836.0,286046995.6,N
1505567855.8,286046998.0,N
1505567875.6,286046997.5,N
1505567895.5,286046999.0,N
1505567915.3,286046994.9,N
1505567935.1,286046997.1,N
1505567955.9,286046995.4,N
1505567975.7,286046993.6,N
1505567995.5,286046994.6,N
1505568015.3,286046994.6,N
1505568035.2,286046994.8,N
1505568055.0,286046996.4,N
1505568055.9,286046996.4,N
1505568075.7,286046995.9,N
1505568095.6,286046995.8,N
1505568115.4,286046997.4,N
1505568135.2,286047001.2,N
1505568155.1,286046999.0,N
1505568156.0,286046999.0,N
1505568175.8,286046998.5,N
1505568195.6,286047000.9,N
1505568215.5,286047000.7,N
1505568235.3,286047000.0,N
1505568255.1,286046999.9,N
1505568275.9,286046998.9,N
1505568295.7,286047000.1,N
1505568315.5,286047001.8,N
1505568335.4,286046998.2,N
1505568355.2,286047000.6,N
1505568375.0,286047000.5,N
1505568375.9,286047000.5,N
1505568395.7,286047000.3,N
1505568415.6,286047001.5,N
1505568435.4,286047002.4,N
1505568455.2,286047002.8,N
1505568475.1,286047001.2,N
1505568476.0,286047001.2,N
1505568495.8,286047001.1,N
1505568515.6,286047000.4,N
1505568535.5,286047000.8,N
1505568555.3,286047001.1,N
1505568575.1,286046998.0,N
1505568595.9,286046997.1,N
1505568615.7,286046996.5,N
1505568635.5,286046999.0,N
1505568655.4,286046999.3,N
1505568675.2,286046998.7,N
1505568695.0,286047001.2,N
1505568695.9,286047001.2,N
1505568715.8,286046999.7,N
1505568735.6,286046998.1,N
1505568755.4,286046999.4,N
1505568775.2,286046998.8,N
1505568795.1,286046998.6,N
1505568796.0,286046998.6,N
1505568815.8,286047000.2,N
1505568835.6,286046998.2,N
1505568855.5,286047002.7,N
1505568875.3,286047002.0,N
1505568895.1,286047000.8,N
1505568915.9,286046999.9,N
1505568935.7,286047000.3,N
1505568955.5,286047000.7,N
1505568975.4,286047004.1,N
1505568995.2,286047003.6,N
1505569015.0,286047002.4,N
1505569015.9,286047002.4,N
1505569035.8,286046999.9,N
1505569055.6,286046997.3,N
1505569075.4,286046997.2,N
1505569095.3,286047000.0,N
1505569115.1,286046996.7,N
1505569116.0,286046996.7,N
1505569135.8,286046997.4,N
1505569155.7,286046998.5,N
1505569175.5,286047000.9,N
1505569195.3,286046997.8,N
1505569215.2,286047000.8,N
1505569235.9,286047000.0,N
1505569255.7,286047003.3,N
1505569275.5,286047004.9,N
1505569295.4,286047005.3,N
1505569315.2,286047005.4,N
1505569335.0,286047005.8,N
1505569335.9,286047005.8,N
1505569355.8,286047005.1,N
1505569375.6,286047005.8,N
1505569395.4,286047003.3,N
1505569415.3,286047002.3,N
1505569435.1,286047004.3,N
1505569455.8,286047000.2,N
1505569475.7,286047002.9,N
1505569495.5,286047004.7,N
1505569515.3,286047005.5,N
1505569535.2,286047005.7,N
1505569555.9,286047005.7,N
1505569575.7,286047004.9,N
1505569595.6,286047009.1,N
1505569615.4,286047007.2,N
1505569635.2,286047005.2,N
1505569655.0,286047004.7,N
1505569656.0,286047004.7,N
1505569675.8,286047003.9,N
1505569695.6,286047001.2,N
1505569715.4,286047004.0,N
1505569735.3,286047006.7,N
1505569755.1,286047004.8,N
1505569775.8,286047004.1,N
1505569795.7,286047004.3,N
1505569815.5,286047000.3,N
1505569835.3,286047000.0,N
1505569855.2,286047000.7,N
1505569875.9,286047000.7,N
1505569895.7,286046996.5,N
1505569915.6,286046998.9,N
1505569935.4,286047000.6,N
1505569955.2,286047002.5,N
1505569975.1,286047000.3,N
1505569976.0,286047000.3,N
1505569995.8,286046996.8,N
1505570015.6,286047002.8,N
1505570035.4,286047003.3,N
1505570055.3,286047002.1,N
1505570075.1,286047005.7,N
1505570095.8,286047001.5,N
1505570115.7,286047005.7,N
1505570135.5,286047005.5,N
1505570155.3,286047001.5,N
1505570175.2,286047000.8,N
1505570195.9,286047001.5,N
1505570215.7,286047002.1,N
1505570235.6,286047003.5,N
1505570255.4,286047005.5,N
1505570275.2,286047001.4,N
1505570295.1,286047003.6,N
1505570296.0,286047003.6,N
1505570315.8,286047003.1,N
1505570335.6,286047004.4,N
1505570355.5,286047003.9,N
1505570375.3,286047003.8,N
1505570395.1,286047001.6,N
